TimeMST,TemperatureF,Dew PointF,Humidity,Sea Level PressureIn,VisibilityMPH,Wind Direction,Wind SpeedMPH,Gust SpeedMPH,PrecipitationIn,Events,Conditions,WindDirDegrees,DateUTC
12:55 AM,50.0,27.0,41,30.12,10.0,Calm,Calm,-,N/A,,Clear,0,2013-02-14 07:55:00
1:55 AM,48.9,27.0,43,30.12,10.0,Calm,Calm,-,N/A,,Clear,0,2013-02-14 08:55:00
2:55 AM,48.9,26.1,41,30.12,10.0,ENE,3.5,-,N/A,,Clear,70,2013-02-14 09:55:00
3:55 AM,46.9,28.0,48,30.10,10.0,NE,4.6,-,N/A,,Clear,50,2013-02-14 10:55:00
4:55 AM,46.9,27.0,46,30.10,10.0,East,3.5,-,N/A,,Clear,80,2013-02-14 11:55:00
5:55 AM,46.0,27.0,47,30.11,10.0,Calm,Calm,-,N/A,,Clear,0,2013-02-14 12:55:00
6:55 AM,45.0,28.0,52,30.11,10.0,Calm,Calm,-,N/A,,Clear,0,2013-02-14 13:55:00
7:55 AM,44.1,28.9,55,30.13,10.0,Calm,Calm,-,N/A,,Partly Cloudy,0,2013-02-14 14:55:00
8:55 AM,53.1,28.9,40,30.14,10.0,Calm,Calm,-,N/A,,Partly Cloudy,0,2013-02-14 15:55:00
9:55 AM,57.9,26.1,30,30.15,10.0,North,5.8,-,N/A,,Partly Cloudy,10,2013-02-14 16:55:00
10:55 AM,64.9,26.1,23,30.19,10.0,North,4.6,-,N/A,,Partly Cloudy,360,2013-02-14 17:55:00
11:55 AM,70.0,23.0,17,30.15,10.0,North,16.1,-,N/A,,Partly Cloudy,350,2013-02-14 18:55:00
12:55 PM,72.0,23.0,16,30.12,10.0,North,16.1,24.2,N/A,,Partly Cloudy,10,2013-02-14 19:55:00
1:55 PM,73.0,23.0,15,30.08,10.0,North,20.7,25.3,N/A,,Partly Cloudy,10,2013-02-14 20:55:00
2:55 PM,73.9,23.0,15,30.06,10.0,North,15.0,23.0,N/A,,Scattered Clouds,350,2013-02-14 21:55:00
3:55 PM,75.0,24.1,15,30.05,10.0,North,15.0,-,N/A,,Mostly Cloudy,10,2013-02-14 22:55:00
4:55 PM,73.9,24.1,16,30.04,10.0,North,9.2,17.3,N/A,,Mostly Cloudy,360,2013-02-14 23:55:00
5:55 PM,72.0,26.1,18,30.04,10.0,North,6.9,-,N/A,,Mostly Cloudy,350,2013-02-15 00:55:00
6:55 PM,68.0,26.1,21,30.05,10.0,NNW,4.6,-,N/A,,Mostly Cloudy,330,2013-02-15 01:55:00
7:55 PM,66.0,26.1,22,30.07,10.0,NW,5.8,-,N/A,,Mostly Cloudy,320,2013-02-15 02:55:00
8:55 PM,64.9,26.1,23,30.09,10.0,NNW,4.6,-,N/A,,Mostly Cloudy,330,2013-02-15 03:55:00
9:55 PM,62.1,26.1,25,30.11,10.0,North,4.6,-,N/A,,Mostly Cloudy,350,2013-02-15 04:55:00
10:55 PM,64.0,24.1,22,30.11,10.0,North,6.9,-,N/A,,Mostly Cloudy,10,2013-02-15 05:55:00
11:55 PM,64.9,23.0,20,30.12,10.0,North,10.4,-,N/A,,Mostly Cloudy,10,2013-02-15 06:55:00